AB4KN Weather Reports


Display with metric or nautical units.
time (UTC)temp
F
wind
direction
speed
MPH
gust
MPH
rain 1hr
in
rain 24hr
in
rain mn
in
humidity
%
barometer
mb
20260905035836 80 251 0.0 0.0 0.00 0.00 0.00 72 1020.1
20260905035332 80 251 0.0 0.0 0.00 0.00 0.00 72 1020.0
20260905034828 80 251 0.0 0.0 0.00 0.00 0.00 72 1020.2
20260905034324 80 251 0.0 0.0 0.00 0.00 0.00 72 1020.3
20260905033822 81 251 0.0 0.0 0.00 0.00 0.00 71 1020.3
20260905033318 81 251 0.0 0.0 0.00 0.00 0.00 69 1020.2
20260905032817 82 251 0.0 0.0 0.00 0.00 0.00 68 1020.3
20260905032313 82 251 0.0 0.0 0.00 0.00 0.00 68 1020.3
20260905031808 82 251 0.0 0.0 0.00 0.00 0.00 67 1020.3
20260905031304 82 251 0.0 0.0 0.00 0.00 0.00 67 1020.2
20260905030759 82 251 0.0 0.0 0.00 0.00 0.00 67 1020.5
20260905030254 82 251 0.0 0.0 0.00 0.00 0.00 67 1020.7
20260905025748 82 251 0.0 0.0 0.00 0.00 0.00 67 1020.6
20260905025244 82 251 0.0 0.0 0.00 0.00 0.00 68 1020.8
20260905024739 83 251 0.0 0.0 0.00 0.00 0.00 68 1020.6
20260905024235 83 251 0.0 0.0 0.00 0.00 0.00 67 1020.8
20260905023735 83 251 0.0 0.0 0.00 0.00 0.00 66 1020.8
20260905023230 84 251 0.0 0.0 0.00 0.00 0.00 65 1020.9
20260905022730 83 251 0.0 0.0 0.00 0.00 0.00 64 1020.9
20260905022225 83 251 0.0 0.0 0.00 0.00 0.00 66 1021.0
20260905021719 84 251 0.0 0.0 0.00 0.00 0.00 66 1020.9
20260905021214 84 251 0.0 0.0 0.00 0.00 0.00 65 1020.7
20260905020708 84 251 0.0 0.0 0.00 0.00 0.00 64 1020.9
20260905020159 84 251 0.0 0.0 0.00 0.00 0.00 65 1021.1
20260905015657 84 251 0.0 0.0 0.00 0.00 0.00 64 1021.0
20260905015157 84 251 0.0 0.0 0.00 0.00 0.00 66 1020.9
20260905014655 84 251 0.0 0.0 0.00 0.00 0.00 66 1021.0
20260905014151 84 251 0.0 0.0 0.00 0.00 0.00 66 1020.8
20260905013648 84 251 0.0 0.0 0.00 0.00 0.00 66 1020.8
20260905013143 84 251 0.0 0.0 0.00 0.00 0.00 66 1020.8
20260905012638 84 251 0.0 0.0 0.00 0.00 0.00 65 1020.7
20260905012134 85 251 0.0 0.0 0.00 0.00 0.00 65 1020.7
20260905011630 85 251 0.0 0.0 0.00 0.00 0.00 64 1020.6
20260905011126 85 251 0.0 0.0 0.00 0.00 0.00 65 1020.6
20260905010620 85 251 0.0 0.0 0.00 0.00 0.00 63 1020.6
20260905010117 85 251 0.0 0.0 0.00 0.00 0.00 63 1020.3
20260905005612 86 251 0.0 0.0 0.00 0.00 0.00 62 1020.4
20260905005107 86 251 0.0 0.0 0.00 0.00 0.00 62 1020.4
20260905004602 86 251 0.0 0.0 0.00 0.00 0.00 62 1020.4
20260905004057 86 251 0.0 0.0 0.00 0.00 0.00 62 1020.2
20260905003553 86 251 0.0 0.0 0.00 0.00 0.00 61 1020.3
20260905003048 87 251 0.0 0.0 0.00 0.00 0.00 60 1020.2
20260905002544 87 251 0.0 0.0 0.00 0.00 0.00 60 1020.1
20260905002038 87 251 0.0 0.0 0.00 0.00 0.00 59 1020.2
20260905001532 88 251 0.0 0.0 0.00 0.00 0.00 59 1020.1
20260905001027 88 251 0.0 0.0 0.00 0.00 0.00 58 1020.0
20260905000522 89 251 0.0 0.0 0.00 0.00 0.00 56 1019.8
20260905000019 90 251 0.0 0.0 0.00 0.00 0.00 54 1019.8
20260904235513 90 251 0.0 0.0 0.00 0.00 0.00 54 1019.8
20260904235013 91 251 0.0 0.0 0.00 0.00 0.00 53 1019.9
20260904234513 91 251 0.0 0.0 0.00 0.00 0.00 52 1019.9
20260904234009 91 251 0.0 0.0 0.00 0.00 0.00 52 1019.7
20260904233504 91 192 0.0 0.0 0.00 0.00 0.00 52 1019.9
20260904233000 92 253 0.0 0.0 0.00 0.00 0.00 51 1019.9
20260904232456 92 289 0.0 0.0 0.00 0.00 0.00 50 1019.7
20260904231953 93 157 0.0 0.0 0.00 0.00 0.00 50 1019.5
20260904231448 93 268 0.0 0.0 0.00 0.00 0.00 49 1019.9
20260904230943 93 251 0.0 0.0 0.00 0.00 0.00 48 1019.6
20260904230442 93 225 0.0 0.0 0.00 0.00 0.00 48 1019.7
20260904225937 94 208 0.0 0.0 0.00 0.00 0.00 48 1019.8
20260904225434 94 254 0.0 0.0 0.00 0.00 0.00 47 1019.7
20260904224929 94 255 0.0 0.0 0.00 0.00 0.00 48 1019.7
20260904224425 94 250 0.0 0.0 0.00 0.00 0.00 47 1019.6
20260904223924 94 257 0.0 0.0 0.00 0.00 0.00 47 1019.5
20260904223423 94 152 3.0 5.0 0.00 0.00 0.00 47 1019.5
20260904222920 95 130 0.0 0.0 0.00 0.00 0.00 47 1019.4
20260904222415 94 252 0.0 0.0 0.00 0.00 0.00 47 1019.4
20260904221915 95 281 0.0 0.0 0.00 0.00 0.00 46 1019.7
20260904221409 94 117 0.0 0.0 0.00 0.00 0.00 47 1019.5
20260904220905 94 256 0.0 0.0 0.00 0.00 0.00 47 1019.4
20260904220404 94 271 0.0 0.0 0.00 0.00 0.00 47 1019.5
20260904215900 95 176 0.0 0.0 0.00 0.00 0.00 47 1019.6
20260904215354 95 130 0.0 0.0 0.00 0.00 0.00 46 1019.7
20260904214850 96 228 0.0 0.0 0.00 0.00 0.00 45 1019.6
20260904214346 96 126 0.0 0.0 0.00 0.00 0.00 44 1019.4
20260904213844 96 215 0.0 0.0 0.00 0.00 0.00 44 1019.4
20260904213339 96 192 0.0 0.0 0.00 0.00 0.00 45 1019.8
20260904212836 95 235 0.0 0.0 0.00 0.00 0.00 45 1019.8
20260904212335 95 252 0.0 0.0 0.00 0.00 0.00 45 1019.8
20260904211831 96 272 0.0 0.0 0.00 0.00 0.00 45 1019.7
20260904211326 96 74 0.0 0.0 0.00 0.00 0.00 45 1019.9
20260904210821 96 294 0.0 0.0 0.00 0.00 0.00 45 1019.9
20260904210320 96 253 0.0 0.0 0.00 0.00 0.00 45 1019.6
20260904205817 96 275 0.0 0.0 0.00 0.00 0.00 45 1019.6
20260904205312 95 275 0.0 0.0 0.00 0.00 0.00 45 1019.8
20260904204809 95 286 0.0 0.0 0.00 0.00 0.00 45 1019.7
20260904204304 96 290 0.0 0.0 0.00 0.00 0.00 43 1019.8
20260904203801 96 274 1.0 2.0 0.00 0.00 0.00 44 1019.9
20260904203256 96 321 0.0 0.0 0.00 0.00 0.00 44 1019.9
20260904202752 96 296 0.0 0.0 0.00 0.00 0.00 44 1020.3
20260904202248 96 182 5.0 5.0 0.00 0.00 0.00 44 1020.1
20260904201744 96 155 2.0 3.0 0.00 0.00 0.00 44 1020.2
20260904201243 96 221 2.0 3.0 0.00 0.00 0.00 43 1020.3
20260904200738 95 228 0.0 0.0 0.00 0.00 0.00 45 1020.3
20260904200233 96 290 2.0 3.0 0.00 0.00 0.00 45 1020.3
20260904195732 95 291 1.0 2.0 0.00 0.00 0.00 45 1020.6
20260904195231 96 243 3.0 3.0 0.00 0.00 0.00 46 1020.5
20260904194726 96 295 1.0 2.0 0.00 0.00 0.00 44 1020.6
20260904194225 95 314 0.0 0.0 0.00 0.00 0.00 44 1020.7
20260904193721 95 303 0.0 0.0 0.00 0.00 0.00 45 1020.8
20260904193217 95 301 0.0 0.0 0.00 0.00 0.00 45 1020.8
20260904192716 95 284 0.0 0.0 0.00 0.00 0.00 48 1020.8
20260904192212 95 253 0.0 0.0 0.00 0.00 0.00 49 1020.9
20260904191709 95 280 0.0 0.0 0.00 0.00 0.00 48 1020.9
20260904191204 93 175 0.0 0.0 0.00 0.00 0.00 50 1021.2
20260904190701 93 287 0.0 0.0 0.00 0.00 0.00 52 1021.2
20260904190157 94 247 0.0 0.0 0.00 0.00 0.00 52 1021.2
20260904185653 93 229 0.0 0.0 0.00 0.00 0.00 52 1021.3
20260904185148 93 305 0.0 0.0 0.00 0.00 0.00 53 1021.3
20260904184646 94 243 0.0 2.0 0.00 0.00 0.00 52 1021.6
20260904184142 94 296 0.0 2.0 0.00 0.00 0.00 51 1021.6
20260904183638 93 349 3.0 3.0 0.00 0.00 0.00 51 1021.5
20260904183137 93 288 1.0 2.0 0.00 0.00 0.00 53 1022.0
20260904182632 93 246 2.0 3.0 0.00 0.00 0.00 52 1021.9
20260904182128 93 305 0.0 0.0 0.00 0.00 0.00 53 1022.1
20260904181623 94 263 0.0 0.0 0.00 0.00 0.00 52 1021.9
20260904181118 94 313 0.0 0.0 0.00 0.00 0.00 53 1022.0
20260904180613 94 284 0.0 0.0 0.00 0.00 0.00 52 1022.2
20260904180109 94 176 0.0 0.0 0.00 0.00 0.00 52 1022.1
20260904175607 95 317 0.0 0.0 0.00 0.00 0.00 51 1022.0
20260904175106 95 219 0.0 0.0 0.00 0.00 0.00 51 1022.2
20260904174601 94 241 0.0 0.0 0.00 0.00 0.00 51 1022.2
20260904174057 92 275 0.0 0.0 0.00 0.00 0.00 55 1022.0
20260904173557 91 297 0.0 0.0 0.00 0.00 0.00 56 1022.3
20260904173053 92 303 0.0 0.0 0.00 0.00 0.00 55 1022.5
20260904172549 94 302 1.0 2.0 0.00 0.00 0.00 53 1022.6
20260904172048 94 289 0.0 0.0 0.00 0.00 0.00 53 1022.4
20260904171543 95 303 0.0 0.0 0.00 0.00 0.00 52 1022.5
20260904171039 94 187 0.0 0.0 0.00 0.00 0.00 52 1022.6
20260904170534 94 284 0.0 0.0 0.00 0.00 0.00 53 1022.9
20260904170030 93 340 2.0 3.0 0.00 0.00 0.00 54 1022.7
20260904165529 93 187 3.0 3.0 0.00 0.00 0.00 55 1022.6
20260904165028 93 268 0.0 0.0 0.00 0.00 0.00 56 1022.7
20260904164524 93 330 0.0 3.0 0.00 0.00 0.00 56 1023.0
20260904164020 92 265 0.0 0.0 0.00 0.00 0.00 56 1023.0
20260904163519 92 142 5.0 9.0 0.00 0.00 0.00 57 1023.1
20260904163014 93 332 0.0 0.0 0.00 0.00 0.00 58 1023.0
20260904162509 91 201 0.0 0.0 0.00 0.00 0.00 57 1023.4
20260904162005 91 137 0.0 2.0 0.00 0.00 0.00 59 1023.0
20260904161459 92 213 0.0 0.0 0.00 0.00 0.00 58 1023.2
20260904160955 91 233 0.0 0.0 0.00 0.00 0.00 61 1023.0
20260904160449 90 319 0.0 0.0 0.00 0.00 0.00 60 1023.3
20260904155944 91 300 0.0 0.0 0.00 0.00 0.00 59 1023.5
20260904155439 90 310 0.0 0.0 0.00 0.00 0.00 61 1023.5
20260904154938 89 306 0.0 0.0 0.00 0.00 0.00 63 1023.4
20260904154432 89 297 0.0 0.0 0.00 0.00 0.00 64 1023.2
20260904153927 88 205 0.0 0.0 0.00 0.00 0.00 64 1023.5
20260904153422 88 306 0.0 0.0 0.00 0.00 0.00 65 1023.5
20260904152919 89 304 0.0 0.0 0.00 0.00 0.00 64 1023.6
20260904152414 89 260 0.0 0.0 0.00 0.00 0.00 64 1023.5
20260904151913 89 208 2.0 2.0 0.00 0.00 0.00 64 1023.2
20260904151409 88 142 0.0 0.0 0.00 0.00 0.00 63 1023.6
20260904150904 87 264 0.0 0.0 0.00 0.00 0.00 66 1023.6
20260904150358 87 244 0.0 0.0 0.00 0.00 0.00 66 1023.7
20260904145856 87 252 0.0 0.0 0.00 0.00 0.00 65 1023.3
20260904145353 87 268 0.0 0.0 0.00 0.00 0.00 66 1023.1
20260904144848 86 172 0.0 0.0 0.00 0.00 0.00 67 1023.3
20260904144344 86 173 0.0 0.0 0.00 0.00 0.00 68 1023.3
20260904143839 85 329 0.0 0.0 0.00 0.00 0.00 70 1023.2
20260904143336 85 272 0.0 0.0 0.00 0.00 0.00 72 1023.2
20260904142832 84 264 0.0 0.0 0.00 0.00 0.00 72 1023.3
20260904142327 84 239 0.0 0.0 0.00 0.00 0.00 72 1023.5
20260904141822 84 247 0.0 0.0 0.00 0.00 0.00 73 1023.3
20260904141317 83 274 0.0 0.0 0.00 0.00 0.00 75 1023.2
20260904140813 83 247 0.0 0.0 0.00 0.00 0.00 74 1023.3
20260904140308 82 220 0.0 0.0 0.00 0.00 0.00 74 1023.4
20260904135807 82 245 0.0 0.0 0.00 0.00 0.00 76 1023.2
20260904135305 82 202 0.0 0.0 0.00 0.00 0.00 75 1023.2
20260904134759 82 248 0.0 0.0 0.00 0.00 0.00 75 1023.2
20260904134258 81 286 0.0 0.0 0.00 0.00 0.00 77 1023.2
20260904133753 81 243 0.0 0.0 0.00 0.00 0.00 77 1023.1
20260904133249 80 255 0.0 0.0 0.00 0.00 0.00 78 1023.0
20260904132748 80 255 0.0 0.0 0.00 0.00 0.00 78 1023.0
20260904132244 80 254 0.0 0.0 0.00 0.00 0.00 79 1022.9
20260904131742 80 258 0.0 0.0 0.00 0.00 0.00 80 1023.0
20260904131239 80 254 0.0 0.0 0.00 0.00 0.00 82 1023.1
20260904130738 79 246 0.0 0.0 0.00 0.00 0.00 83 1023.2
20260904130238 79 246 0.0 0.0 0.00 0.00 0.00 84 1023.0
20260904125734 78 272 0.0 0.0 0.00 0.00 0.00 84 1023.1
20260904125229 78 272 0.0 0.0 0.00 0.00 0.00 85 1023.1
20260904124723 77 272 0.0 0.0 0.00 0.00 0.00 85 1023.0
20260904124220 77 272 0.0 0.0 0.00 0.00 0.00 85 1023.1
20260904123714 77 272 0.0 0.0 0.00 0.00 0.00 86 1023.2
20260904123210 76 272 0.0 0.0 0.00 0.00 0.00 86 1023.0
20260904122710 76 272 0.0 0.0 0.00 0.00 0.00 86 1022.9
20260904122205 76 272 0.0 0.0 0.00 0.00 0.00 86 1023.1
20260904121700 75 257 0.0 0.0 0.00 0.00 0.00 86 1023.2
20260904121155 75 257 0.0 0.0 0.00 0.00 0.00 86 1022.7
20260904120652 75 257 0.0 0.0 0.00 0.00 0.00 86 1023.2
20260904120148 75 257 0.0 0.0 0.00 0.00 0.00 86 1023.1
20260904115643 75 257 0.0 0.0 0.00 0.00 0.00 86 1022.7
20260904115138 75 257 0.0 0.0 0.00 0.00 0.00 86 1022.5
20260904114637 75 257 0.0 0.0 0.00 0.00 0.00 86 1022.7
20260904114137 75 257 0.0 0.0 0.00 0.00 0.00 86 1022.7
20260904113632 75 257 0.0 0.0 0.00 0.00 0.00 86 1022.9
20260904113131 75 257 0.0 0.0 0.00 0.00 0.00 86 1022.5
20260904112627 75 257 0.0 0.0 0.00 0.00 0.00 86 1022.4
20260904112123 75 257 0.0 0.0 0.00 0.00 0.00 86 1022.6
20260904111618 75 257 0.0 0.0 0.00 0.00 0.00 86 1022.5
20260904111113 75 257 0.0 0.0 0.00 0.00 0.00 86 1022.4
20260904110608 75 256 0.0 0.0 0.00 0.00 0.00 86 1022.1
20260904105603 75 255 0.0 0.0 0.00 0.00 0.00 85 1022.3
20260904105058 75 255 0.0 0.0 0.00 0.00 0.00 85 1022.1
20260904104553 75 255 0.0 0.0 0.00 0.00 0.00 85 1022.1
20260904104049 76 255 0.0 0.0 0.00 0.00 0.00 85 1022.2
20260904103544 76 255 0.0 0.0 0.00 0.00 0.00 84 1022.2
20260904103041 76 255 0.0 0.0 0.00 0.00 0.00 84 1022.3
20260904102536 76 255 0.0 0.0 0.00 0.00 0.00 84 1022.2
20260904102031 76 255 0.0 0.0 0.00 0.00 0.00 84 1022.2
20260904101528 76 255 0.0 0.0 0.00 0.00 0.00 84 1022.2
20260904101023 76 255 0.0 0.0 0.00 0.00 0.00 84 1022.2
20260904100519 76 255 0.0 0.0 0.00 0.00 0.00 84 1021.9
20260904100014 76 255 0.0 0.0 0.00 0.00 0.00 83 1022.0
20260904095508 76 255 0.0 0.0 0.00 0.00 0.00 83 1021.9
20260904095003 76 255 0.0 0.0 0.00 0.00 0.00 83 1022.0
20260904094458 76 255 0.0 0.0 0.00 0.00 0.00 83 1021.7
20260904093954 77 255 0.0 0.0 0.00 0.00 0.00 83 1021.9
20260904093450 77 255 0.0 0.0 0.00 0.00 0.00 82 1021.9
20260904092944 77 255 0.0 0.0 0.00 0.00 0.00 82 1021.9
20260904092441 77 255 0.0 0.0 0.00 0.00 0.00 82 1021.9
20260904091936 77 255 0.0 0.0 0.00 0.00 0.00 82 1021.9
20260904091433 77 255 0.0 0.0 0.00 0.00 0.00 82 1021.8
20260904090926 77 255 0.0 0.0 0.00 0.00 0.00 81 1021.9
20260904090423 77 255 0.0 0.0 0.00 0.00 0.00 81 1021.8
20260904085917 77 255 0.0 0.0 0.00 0.00 0.00 81 1022.0
20260904085413 77 255 0.0 0.0 0.00 0.00 0.00 81 1021.8
20260904084907 77 254 0.0 0.0 0.00 0.00 0.00 81 1022.0
20260904084403 78 254 0.0 0.0 0.00 0.00 0.00 81 1022.1
20260904083853 78 254 0.0 0.0 0.00 0.00 0.00 81 1022.1
20260904083350 78 249 0.0 0.0 0.00 0.00 0.00 80 1022.2
20260904082845 78 241 0.0 0.0 0.00 0.00 0.00 80 1022.2
20260904082339 78 248 0.0 0.0 0.00 0.00 0.00 80 1022.0
20260904081835 78 248 0.0 0.0 0.00 0.00 0.00 80 1022.0
20260904081330 78 262 0.0 0.0 0.00 0.00 0.00 79 1021.9
20260904080827 78 268 0.0 0.0 0.00 0.00 0.00 79 1021.9
20260904080321 78 262 0.0 0.0 0.00 0.00 0.00 79 1021.9
20260904075818 78 262 0.0 0.0 0.00 0.00 0.00 79 1021.9
20260904075312 78 262 0.0 0.0 0.00 0.00 0.00 79 1022.1
20260904074811 79 242 0.0 0.0 0.00 0.00 0.00 78 1021.8
20260904074306 79 262 0.0 0.0 0.00 0.00 0.00 78 1022.0
20260904073802 79 247 0.0 0.0 0.00 0.00 0.00 77 1021.9
20260904073257 79 214 2.0 2.0 0.00 0.00 0.00 78 1021.8
20260904072754 79 263 0.0 0.0 0.00 0.00 0.00 78 1022.0
20260904072252 79 263 0.0 0.0 0.00 0.00 0.00 78 1022.0
20260904071748 79 263 0.0 0.0 0.00 0.00 0.00 77 1022.0
20260904071249 79 266 0.0 0.0 0.00 0.00 0.00 77 1022.0
20260904070743 79 266 0.0 0.0 0.00 0.00 0.00 77 1021.9
20260904070242 79 254 0.0 0.0 0.00 0.00 0.00 77 1022.2
20260904065737 79 254 0.0 0.0 0.00 0.00 0.00 76 1021.9
20260904065234 79 254 0.0 0.0 0.00 0.00 0.00 76 1021.8
20260904064734 80 254 0.0 0.0 0.00 0.00 0.00 76 1021.9
20260904064229 80 161 0.0 0.0 0.00 0.00 0.00 75 1022.1
20260904063725 80 253 0.0 0.0 0.00 0.00 0.00 75 1022.0
20260904063221 80 253 0.0 0.0 0.00 0.00 0.00 75 1022.1
20260904062717 80 253 0.0 0.0 0.00 0.00 0.00 74 1022.1
20260904062212 80 253 0.0 0.0 0.00 0.00 0.00 74 1022.0
20260904061708 80 253 0.0 0.0 0.00 0.00 0.00 74 1022.0
20260904061204 80 252 0.0 0.0 0.00 0.00 0.00 74 1022.0
20260904060701 80 252 0.0 0.0 0.00 0.00 0.00 74 1021.9
20260904060156 79 252 0.0 0.0 0.00 0.00 0.00 77 1021.8
20260904055650 79 252 0.0 0.0 0.00 0.00 0.00 77 1022.0
20260904055146 79 252 0.0 0.0 0.00 0.00 0.00 77 1021.9
20260904054641 79 252 0.0 0.0 0.00 0.00 0.00 78 1022.1
20260904054138 79 252 0.0 0.0 0.00 0.00 0.00 77 1022.0
20260904053638 79 252 0.0 0.0 0.00 0.00 0.00 77 1022.2
20260904053132 80 252 0.0 0.0 0.00 0.00 0.00 77 1022.0
20260904052629 80 252 0.0 0.0 0.00 0.00 0.00 76 1022.1
20260904052125 80 252 0.0 0.0 0.00 0.00 0.00 76 1021.9
20260904051621 80 252 0.0 0.0 0.00 0.00 0.00 76 1022.0
20260904051115 80 252 0.0 0.0 0.00 0.00 0.00 76 1022.1
20260904050611 80 252 0.0 0.0 0.00 0.00 0.00 76 1022.1
20260904050107 80 252 0.0 0.0 0.00 0.00 0.00 76 1022.1
20260904045601 80 252 0.0 0.0 0.00 0.00 0.00 75 1021.9
20260904045056 80 252 0.0 0.0 0.00 0.00 0.00 75 1022.2
20260904044552 80 252 0.0 0.0 0.00 0.00 0.00 75 1021.9
20260904044048 80 252 0.0 0.0 0.00 0.00 0.00 75 1022.0
20260904043544 81 252 0.0 0.0 0.00 0.00 0.00 75 1022.2
20260904043040 81 252 0.0 0.0 0.00 0.00 0.00 75 1022.1
20260904042536 81 252 0.0 0.0 0.00 0.00 0.00 75 1022.0
20260904042031 81 252 0.0 0.0 0.00 0.00 0.00 74 1022.1
20260904041527 81 252 0.0 0.0 0.00 0.00 0.00 74 1022.1
20260904041023 81 252 0.0 0.0 0.00 0.00 0.00 73 1021.8
20260904040522 81 252 0.0 0.0 0.00 0.00 0.00 73 1022.1